Theta_e
306 306 306 305 305 305 306 305 306 305 305 305 305 305 305 305 305 305 305 305 306 305 305 305 306 306 306 306 306 306 306 307 306 306 307 306 305 305 307 309 309 309 309 309 310 310 311 311 310 310 312 312 312 312 311 310 310 313 316 315 314 314 313 312 312 311 310 310 310 308 308 309 308 306 304 304 304 304 304 304 303 303 303 303 302 302 301 299
307 307 306 306 306 306 306 306 306 305 305 305 305 305 305 306 305 305 306 306 306 306 306 306 306 306 306 307 307 307 306 307 307 306 306 305 305 306 306 308 309 309 309 309 310 310 311 311 310 310 312 312 311 312 312 310 310 314 314 314 314 314 311 310 310 309 308 308 309 308 308 308 308 307 304 303 305 305 305 305 305 304 303 303 302 302 301 300
307 307 307 307 306 306 306 306 306 306 306 306 306 306 306 306 305 306 306 306 306 306 306 306 306 306 306 307 307 308 307 308 307 306 306 305 306 306 306 307 308 309 309 309 309 310 310 310 310 310 311 312 310 311 312 310 310 312 311 314 314 311 309 308 308 306 305 307 308 308 307 308 307 306 304 304 306 306 306 306 306 306 305 304 303 303 302 302
307 307 307 307 307 306 306 306 306 306 306 306 306 306 306 306 306 306 306 306 306 307 306 307 307 306 307 307 307 308 308 309 308 306 306 306 306 306 306 307 307 308 309 309 309 310 310 310 310 310 311 312 311 310 311 308 310 311 311 313 311 309 308 307 306 305 304 306 307 308 306 306 306 305 304 304 305 306 307 307 307 307 306 305 305 303 303 302
307 307 307 306 306 306 306 307 306 306 306 306 306 306 306 306 306 306 306 306 306 306 306 307 307 307 307 307 307 307 308 311 308 305 306 306 306 307 306 307 307 308 308 308 309 310 310 310 310 310 312 312 311 311 310 307 308 310 309 308 308 308 307 305 304 303 303 304 306 307 306 305 306 304 304 304 304 306 308 308 306 306 305 305 305 304 303 303
307 307 307 306 307 307 307 307 307 307 307 307 307 306 306 306 306 306 306 307 306 306 306 307 307 307 308 307 307 308 309 310 307 305 306 306 307 307 307 307 307 307 308 308 309 310 311 310 310 311 311 311 311 310 309 306 307 310 308 306 306 306 305 305 303 302 302 304 305 306 305 305 304 304 305 304 304 305 306 306 305 305 304 303 304 304 303 303
307 307 307 307 307 308 307 307 307 307 307 307 306 306 306 306 306 306 306 307 306 306 306 307 307 307 308 307 307 308 309 308 305 306 307 307 307 307 307 307 307 307 307 308 309 310 310 310 311 310 311 312 310 309 308 307 307 310 309 305 304 304 304 303 302 302 302 304 304 304 304 303 304 305 305 304 304 305 304 305 304 303 303 302 302 302 302 302
307 307 307 307 307 308 307 307 307 307 307 306 306 306 306 306 306 306 306 306 306 306 306 307 306 306 307 307 309 309 307 306 305 306 306 307 307 307 307 307 307 307 307 308 309 310 310 311 310 310 312 311 310 310 308 309 310 311 309 305 304 304 303 302 301 302 301 302 302 302 303 303 304 304 303 303 304 304 304 304 303 302 302 301 301 301 301 301
307 307 307 307 307 307 307 307 307 307 306 306 306 306 306 306 306 306 306 306 306 306 307 307 306 307 307 307 310 310 307 305 305 306 306 306 306 307 307 307 307 308 308 308 308 309 310 311 310 310 311 309 309 310 308 310 311 309 307 305 305 304 303 302 302 302 301 302 302 302 303 304 304 302 303 304 304 304 304 303 303 302 302 301 301 301 301 301
307 307 307 307 307 307 307 307 307 306 305 305 306 306 306 306 306 306 306 306 306 306 307 307 307 307 307 307 310 311 306 305 305 306 306 306 306 307 307 307 307 308 308 308 308 309 309 309 309 308 310 309 309 309 308 310 309 306 306 305 305 304 303 302 303 303 302 302 302 302 303 304 303 301 304 306 305 304 303 303 302 302 301 301 301 301 301 301
307 307 307 307 307 307 307 307 307 305 305 305 306 306 306 305 306 306 306 306 306 306 307 307 307 307 307 308 310 310 305 305 306 305 306 306 306 307 307 307 307 307 308 308 308 308 308 308 307 308 310 310 308 307 306 306 306 305 306 306 305 304 304 303 303 303 302 303 302 302 303 304 303 301 304 306 305 304 303 302 302 301 301 301 301 301 301 300
307 307 307 307 307 307 308 307 305 305 306 305 305 306 307 306 306 306 306 306 306 306 307 307 307 306 308 308 307 306 305 305 306 305 306 306 306 307 307 307 307 307 307 307 307 307 307 307 307 309 310 309 309 308 306 303 304 305 305 308 308 306 305 304 304 303 303 303 302 302 305 307 304 302 306 306 305 304 302 302 302 301 301 301 301 301 301 300
307 307 307 307 307 307 307 306 305 305 305 305 306 306 306 307 306 306 306 307 307 306 306 307 307 306 309 309 305 304 305 305 306 306 306 306 307 307 306 307 307 307 307 307 307 307 307 307 307 308 308 310 310 308 305 303 305 306 306 308 309 309 308 305 304 303 302 303 302 303 308 310 307 305 307 306 304 303 302 302 303 302 302 302 302 301 300 300
307 306 307 307 307 307 306 305 305 305 306 305 305 305 306 306 306 306 306 306 307 307 306 307 307 307 309 308 305 305 305 305 305 305 305 306 307 307 307 307 306 307 307 307 307 307 307 306 307 307 307 308 307 305 306 306 306 308 309 309 309 311 309 305 304 304 303 303 302 304 308 310 310 309 307 305 304 303 303 304 304 304 303 302 302 301 301 301
307 306 306 306 306 306 305 305 305 306 306 306 305 305 306 306 306 306 306 306 307 307 307 307 306 308 309 306 305 305 305 305 306 305 305 306 306 307 307 307 307 306 307 307 307 306 306 306 307 308 306 305 306 308 311 309 308 310 311 311 311 311 309 306 304 303 304 303 302 304 307 309 310 310 307 305 304 303 304 305 304 304 304 303 302 302 301 301
306 306 306 306 305 305 305 305 306 306 306 306 306 306 306 306 306 306 306 306 307 307 307 307 306 308 311 307 305 306 305 305 305 305 306 306 306 307 307 307 306 306 306 306 306 306 306 306 306 307 306 306 309 311 312 311 311 311 311 310 310 310 310 308 304 303 304 303 303 304 306 307 308 308 306 305 304 304 304 305 304 304 303 303 303 302 301 301
306 306 305 305 305 305 305 305 306 306 306 306 306 306 306 306 306 306 307 307 307 307 306 307 306 307 309 307 306 306 305 305 305 305 306 305 306 307 307 307 306 306 306 306 306 306 306 306 306 307 308 309 310 311 311 311 311 311 310 310 310 310 310 309 307 304 303 304 305 305 305 306 307 308 308 307 306 305 305 305 304 304 303 303 302 302 302 301
306 306 306 305 305 305 305 305 306 306 306 306 306 306 306 306 306 307 307 307 307 307 307 307 307 310 310 306 306 306 305 306 306 305 306 306 306 306 307 307 307 307 307 307 307 307 307 308 308 310 311 310 310 311 311 311 310 310 310 310 310 309 309 310 309 305 304 305 305 305 306 306 307 308 309 308 307 306 306 305 304 303 303 302 302 302 302 302
306 306 306 305 305 305 305 306 306 306 306 306 306 306 307 307 307 307 307 307 309 311 311 308 308 311 311 306 305 306 305 306 306 306 306 306 306 306 307 307 307 307 309 310 310 308 308 310 310 311 312 311 311 310 310 310 309 309 309 308 308 308 309 309 309 305 303 304 305 306 306 307 307 308 308 308 307 306 306 304 304 303 303 302 302 302 302 302
306 305 305 305 305 305 306 306 306 306 306 306 306 307 311 311 312 311 307 306 307 308 308 306 306 307 307 305 305 305 305 306 306 306 306 306 306 306 307 307 308 309 310 311 312 308 307 311 313 311 311 310 307 307 307 307 307 307 308 308 308 308 309 309 308 304 303 303 305 306 306 306 307 307 308 308 306 306 305 305 304 304 303 303 303 303 303 303
305 305 305 305 306 306 306 306 307 306 306 306 307 310 312 311 313 313 308 306 305 305 306 305 305 306 305 305 305 305 305 306 306 306 306 307 306 307 308 308 309 311 310 309 310 308 308 312 313 309 307 306 305 305 305 306 307 307 307 307 308 308 309 310 307 303 302 303 305 306 305 305 306 308 308 307 306 306 305 305 304 304 304 303 303 304 304 304
305 305 305 306 307 307 308 307 307 306 306 307 307 309 309 308 310 309 308 310 307 304 305 305 305 306 305 305 305 305 306 307 307 306 306 306 307 308 309 309 310 312 310 309 311 311 312 313 309 305 305 305 304 304 305 306 307 307 307 307 308 308 308 309 306 302 302 302 305 305 304 305 307 308 308 306 306 305 304 303 303 303 304 304 304 304 304 304
306 306 306 307 308 308 309 309 308 307 307 308 308 308 308 307 309 307 308 311 309 305 305 305 306 305 305 306 306 305 306 307 307 307 306 307 308 307 309 311 311 311 310 311 311 311 313 311 305 304 304 305 305 304 304 306 307 307 307 307 308 309 308 307 306 303 303 303 304 304 303 305 307 308 306 305 304 304 303 302 302 302 303 304 304 303 303 304
306 307 307 308 308 308 308 308 308 308 308 308 307 308 307 307 308 307 309 311 312 308 305 305 305 305 305 306 305 306 307 306 306 306 305 307 307 307 309 310 310 311 311 311 310 310 312 307 302 303 304 304 306 305 305 307 307 308 308 307 307 307 306 306 305 304 305 305 303 303 305 307 309 309 307 305 304 305 304 303 304 303 303 303 303 303 303 302
307 307 307 308 308 308 308 308 308 307 307 307 307 307 307 307 307 307 309 311 312 310 307 306 306 306 306 305 306 306 306 306 306 305 305 305 306 308 310 307 308 313 312 309 309 311 311 303 301 304 303 304 305 306 306 306 306 308 308 306 305 305 304 304 304 304 306 307 303 303 307 309 310 309 307 307 306 306 305 306 306 305 304 304 303 303 302 302
307 307 307 307 308 308 308 309 308 307 308 307 307 307 307 307 307 307 309 311 311 310 310 309 307 307 307 306 306 305 307 308 305 304 305 305 305 307 310 308 308 312 311 309 309 309 307 301 301 304 304 305 305 306 307 305 305 308 306 303 302 302 302 303 303 303 306 308 305 304 306 308 310 309 307 308 307 306 306 306 305 304 304 304 303 303 302 301
307 308 307 307 307 307 308 309 308 307 307 307 307 307 306 307 307 307 309 311 310 310 311 309 307 307 307 306 305 306 311 310 305 305 303 304 305 305 309 311 310 310 308 308 309 308 305 301 301 303 304 306 306 306 306 304 305 307 302 300 302 301 302 303 303 303 305 306 305 305 305 306 308 308 307 307 307 306 305 305 304 304 303 303 303 302 301 301
308 307 307 307 306 307 307 307 307 307 307 306 306 306 306 307 307 308 311 311 309 309 310 309 307 306 305 305 305 307 309 307 308 308 303 303 305 305 309 311 310 310 307 308 309 307 305 304 303 303 304 306 306 305 304 303 305 305 300 300 301 301 302 302 302 303 304 304 305 306 304 306 308 308 306 307 306 305 305 304 303 304 303 302 302 301 300 300
307 307 307 307 307 307 306 307 307 307 307 306 306 306 307 307 307 310 311 309 309 310 310 308 308 307 306 306 307 306 305 306 308 307 303 303 305 305 309 309 308 309 308 309 310 307 304 304 303 304 305 305 304 301 301 303 304 302 300 301 301 300 301 302 302 304 303 304 307 306 304 306 308 308 307 306 305 304 304 303 303 303 302 301 301 300 300 300
307 307 307 307 307 307 307 307 307 307 306 306 306 306 306 308 309 311 309 308 311 311 308 308 309 308 308 309 309 307 306 307 306 304 304 305 304 304 306 305 306 308 307 307 308 306 303 301 301 303 304 302 301 300 300 302 302 301 301 303 303 302 301 301 302 303 304 306 306 304 304 304 306 308 307 305 303 303 303 302 302 302 301 301 300 300 300 300
307 307 307 307 307 307 307 307 307 307 306 306 306 306 308 310 311 310 308 309 311 311 310 310 309 308 307 308 309 308 308 308 306 306 307 307 305 306 307 306 307 308 308 308 307 306 304 302 303 303 301 300 301 301 301 300 300 300 302 304 306 306 303 303 303 303 306 309 305 302 303 304 305 307 305 303 302 302 302 302 301 302 301 301 300 300 300 299
307 307 307 307 307 307 307 307 307 307 306 306 306 307 310 311 310 309 308 308 310 311 310 310 308 307 306 306 307 307 306 307 307 306 307 307 307 308 308 307 307 308 308 309 308 308 306 304 303 302 300 300 302 304 303 301 301 302 303 305 307 308 307 307 307 307 309 308 303 301 303 303 305 307 305 303 302 301 301 301 301 301 301 300 300 300 299 299
307 307 307 307 307 307 307 307 306 306 306 305 306 310 311 309 309 310 309 308 309 309 308 308 307 306 306 307 308 305 305 307 307 306 306 306 307 307 305 305 306 307 307 307 308 308 308 305 303 303 302 300 301 304 305 304 303 304 304 305 306 308 308 308 308 309 309 306 302 301 302 303 305 306 305 303 302 301 301 301 301 301 300 300 299 299 299 298
306 306 306 306 306 306 306 306 306 306 306 306 308 311 309 307 309 310 309 308 308 307 307 306 306 306 306 307 307 304 305 307 305 306 307 307 307 308 307 304 305 306 305 306 307 307 308 307 304 303 302 300 301 302 302 302 303 304 303 303 305 306 307 308 308 308 309 307 303 300 302 305 306 305 304 302 302 301 301 301 301 301 300 299 299 298 298 298
306 306 306 306 306 306 306 306 306 306 305 307 310 310 308 307 308 308 308 309 307 307 307 305 305 308 308 306 304 302 304 306 305 306 307 307 308 307 306 305 304 304 305 307 307 306 308 309 303 300 299 299 300 300 299 301 303 303 301 303 305 305 305 306 306 306 306 305 304 302 303 306 306 305 303 302 302 301 301 301 300 300 299 299 298 298 298 297
306 306 306 306 305 306 306 306 306 306 306 309 311 309 308 308 307 307 308 307 306 306 307 306 306 308 308 307 305 303 302 304 305 306 306 307 307 306 305 303 302 302 303 306 307 306 307 308 302 299 299 297 298 299 299 301 303 302 302 304 303 301 302 304 305 305 303 304 305 305 305 306 306 305 303 302 302 301 301 301 300 299 299 298 298 297 297 297
306 305 306 305 306 306 306 306 306 305 307 310 310 308 308 307 305 306 306 305 304 303 306 308 307 307 307 308 306 304 303 304 305 306 307 307 306 304 304 302 300 300 300 302 305 305 305 306 303 300 301 298 295 297 299 299 300 302 303 302 301 300 301 302 304 304 305 306 307 306 306 307 306 306 304 302 301 300 300 300 300 299 298 298 297 297 297 296
305 305 305 306 306 306 306 306 306 306 309 310 309 308 308 306 304 304 304 303 303 303 305 307 308 306 306 307 306 304 303 305 306 306 307 307 306 303 303 303 300 299 299 299 303 304 304 306 303 299 300 299 296 298 300 299 298 300 301 300 301 302 303 303 304 304 306 306 306 307 307 306 306 306 304 302 300 300 299 299 299 298 298 297 297 297 296 296
305 305 306 306 305 306 306 306 306 307 310 310 309 309 307 306 303 301 302 303 303 304 306 306 306 306 305 306 306 304 303 305 306 306 306 306 306 303 302 302 300 299 298 299 302 304 303 305 304 300 299 299 298 300 303 302 299 298 300 300 300 301 302 303 303 303 304 305 305 306 306 306 305 304 302 300 299 299 299 298 298 298 297 297 296 296 296 295
304 307 308 306 305 306 306 305 307 309 310 308 309 309 305 305 304 301 301 303 303 304 305 305 304 305 306 305 305 304 304 304 304 305 306 305 306 304 300 300 301 299 299 299 300 302 303 304 305 302 300 301 302 302 303 303 302 301 301 302 301 301 301 302 302 302 303 304 305 305 306 306 304 302 301 300 299 298 298 297 297 297 297 296 296 296 295 294
304 308 309 306 305 306 305 307 308 308 309 308 307 308 306 306 305 302 301 302 303 302 302 304 305 305 306 305 304 304 304 305 304 305 306 305 304 304 300 297 299 299 299 300 300 301 303 303 304 304 303 305 304 299 298 299 300 301 302 303 303 302 302 302 303 303 302 302 303 303 304 304 303 302 301 300 300 298 298 297 297 297 296 296 295 295 294 293
306 309 308 305 305 305 306 309 307 305 307 308 306 306 306 305 304 303 302 302 303 303 302 302 304 305 305 305 305 304 304 305 305 304 305 305 303 303 300 295 296 297 298 301 300 299 300 302 303 304 305 304 300 296 296 297 298 299 300 301 302 302 302 302 303 303 300 301 301 301 302 303 302 302 301 301 300 298 297 297 296 296 296 295 295 294 293 292
308 308 306 305 305 305 307 310 308 306 307 305 303 304 304 304 304 303 303 303 303 303 303 304 305 304 304 304 304 304 304 304 305 305 305 304 302 300 297 295 295 296 298 300 300 298 299 301 303 304 305 303 297 296 296 295 297 299 300 300 300 301 301 301 301 300 299 300 301 301 303 303 301 302 302 302 300 297 297 297 296 296 295 294 294 293 292 292
306 306 305 305 305 306 308 310 309 308 307 304 304 305 303 303 303 303 304 304 303 303 304 304 304 303 304 303 303 304 304 304 305 304 303 303 301 297 295 295 295 297 298 299 300 299 300 303 304 304 306 305 302 301 300 297 298 301 301 299 298 299 300 298 298 298 298 300 300 301 302 303 302 302 302 301 299 297 297 296 295 295 294 293 293 292 292 292
306 306 306 305 304 306 308 309 308 308 307 306 306 305 304 303 302 301 303 303 302 302 303 303 302 302 303 303 303 304 303 303 304 302 300 301 300 297 296 295 295 297 297 296 296 297 300 303 303 303 305 306 306 306 304 301 301 301 301 299 297 299 300 298 298 299 300 300 300 300 301 302 301 301 300 299 298 296 296 295 295 294 293 293 292 291 291 291
306 308 308 306 305 305 305 305 306 307 307 307 306 304 304 305 302 299 301 302 301 300 302 302 301 302 303 303 304 305 304 303 303 301 301 301 300 298 296 296 295 296 296 295 294 296 299 301 301 302 303 304 305 305 303 301 300 301 301 300 298 297 297 296 298 299 300 300 300 300 300 300 300 299 298 298 296 295 295 294 293 293 293 292 291 291 291 291
307 308 307 307 307 306 305 304 305 306 306 305 306 305 304 305 303 300 301 302 301 300 302 302 302 303 304 304 305 305 304 304 302 300 300 300 299 297 295 296 296 295 295 295 294 295 299 301 301 302 302 302 302 302 301 300 299 299 300 300 299 297 295 295 297 299 299 299 300 300 299 298 298 298 297 296 295 294 294 293 293 292 292 291 290 290 291 291
307 306 304 304 306 308 307 305 305 306 305 304 304 304 304 305 304 303 302 301 300 301 302 303 303 303 304 304 304 304 304 304 303 303 301 299 298 299 298 297 297 296 296 296 295 295 299 301 300 300 300 299 299 300 300 300 299 298 299 298 298 298 296 296 297 298 298 298 298 299 297 297 297 297 296 295 294 293 293 292 292 291 291 290 290 290 290 290
305 305 303 303 305 305 304 304 303 306 307 305 304 305 304 305 305 304 302 302 303 302 302 304 305 303 303 303 302 303 304 304 304 304 303 301 300 300 300 300 298 296 296 297 295 294 297 301 301 298 298 299 299 300 299 298 298 298 298 298 298 297 297 297 297 297 297 297 297 297 296 297 297 296 295 294 294 293 291 291 291 291 290 289 289 290 290 290
305 306 304 304 304 303 302 302 303 307 307 304 305 306 304 305 305 303 302 303 305 304 302 304 305 303 302 302 302 303 304 303 303 302 300 301 301 300 300 300 299 297 296 297 295 294 296 300 300 298 299 301 300 298 298 298 298 298 297 297 297 297 297 297 297 296 296 296 296 296 296 297 297 296 294 293 293 291 291 291 291 290 289 289 289 290 290 289
304 304 304 305 306 303 302 303 304 307 307 305 306 306 305 306 305 304 303 301 302 304 303 304 304 303 302 302 302 303 302 300 301 301 298 299 300 299 298 298 298 298 298 296 296 295 296 298 298 298 300 302 299 298 299 298 297 297 297 297 297 297 297 296 296 296 296 296 296 296 296 296 296 294 293 292 292 291 290 290 290 289 289 289 289 289 288 288
303 304 304 305 306 304 303 304 305 306 306 304 304 305 305 305 303 303 304 302 300 301 301 301 302 303 303 304 302 301 299 298 298 298 297 297 297 297 297 297 297 298 298 297 296 296 296 298 299 299 300 302 300 299 300 299 298 299 298 296 296 296 296 296 295 295 295 295 296 296 296 295 294 293 292 291 291 290 290 290 289 289 288 289 289 288 287 287
Wind_Speed
10 10 9 8 9 10 11 11 11 11 10 8 7 7 7 7 7 7 7 7 7 6 5 5 5 6 6 7 8 8 12 12 7 3 4 8 7 5 2 1 1 0 2 4 7 8 5 2 3 4 1 0 1 2 2 3 3 3 3 3 2 2 2 3 4 3 2 1 5 9 10 9 5 7 9 8 10 13 12 13 15 15 19 19 17 18 14 12
9 8 9 8 9 10 10 11 10 9 8 7 6 5 6 6 7 8 7 7 7 7 5 4 3 3 3 4 4 5 9 7 5 7 8 8 5 4 2 2 2 0 2 3 6 6 4 3 5 4 2 0 2 1 1 3 4 3 3 3 1 4 3 4 5 4 3 2 4 7 9 10 5 5 7 6 8 12 12 14 16 17 20 21 22 24 21 18
8 7 7 8 8 9 9 9 8 7 6 4 3 3 3 3 5 6 5 6 7 7 6 5 3 2 2 3 2 2 5 3 4 10 9 6 4 3 2 1 2 1 2 3 3 3 3 4 5 4 3 0 2 1 1 3 3 1 3 3 3 4 3 4 3 4 3 2 2 6 7 9 5 3 6 6 10 10 12 15 14 15 17 18 21 25 24 23
7 7 7 7 8 8 8 8 8 7 6 5 4 3 2 1 2 4 3 4 5 6 6 6 5 4 3 4 4 2 0 1 4 10 8 5 4 3 3 1 1 1 1 2 3 3 3 4 4 3 2 1 2 1 2 5 3 2 3 3 5 2 1 4 3 3 2 2 2 5 5 8 6 4 7 7 9 10 12 13 13 13 12 13 16 21 24 24
6 6 7 7 7 8 8 8 7 7 7 6 5 5 4 2 2 3 2 1 3 5 6 7 7 6 5 6 4 3 4 3 3 9 8 5 4 3 3 3 2 0 1 2 2 4 4 4 3 2 1 1 2 0 3 5 3 1 2 3 3 1 1 4 3 2 2 1 1 4 4 4 3 6 11 11 11 10 8 6 8 9 8 10 11 16 22 23
5 5 6 7 6 6 6 6 6 6 6 6 5 5 4 4 3 4 3 2 2 4 5 7 8 6 5 8 7 2 3 1 5 8 7 6 5 4 4 4 3 1 0 1 2 4 4 4 4 1 1 2 2 2 3 3 3 1 2 2 1 2 1 4 3 2 2 1 2 3 2 2 4 9 11 15 20 19 13 11 14 15 15 16 13 13 20 22
5 4 5 5 5 4 4 5 5 6 6 6 5 4 4 4 5 5 4 4 3 4 4 6 8 6 3 5 8 7 4 4 6 7 7 8 8 8 6 6 5 2 1 1 2 3 3 5 3 1 1 2 3 3 3 2 2 2 1 3 2 1 2 4 2 3 1 3 3 3 4 5 9 10 8 16 25 23 20 20 23 26 24 24 19 16 20 23
5 4 4 4 4 4 4 4 5 5 6 5 5 5 5 4 5 6 6 5 4 3 4 5 8 6 2 1 4 6 8 6 6 8 10 12 12 11 9 7 5 3 2 1 1 3 4 4 2 1 1 3 2 2 2 2 1 2 2 4 2 3 3 4 2 2 1 3 4 5 8 10 11 9 13 24 28 22 20 19 22 24 24 24 25 22 21 22
5 5 4 3 3 3 3 3 4 5 5 4 5 5 4 2 2 3 3 2 2 3 4 4 7 7 0 2 5 3 5 5 6 9 12 14 13 11 9 8 6 5 4 2 1 2 4 3 2 2 0 4 1 2 3 3 1 4 3 4 3 3 3 3 2 2 2 4 5 8 11 11 9 7 16 24 22 16 14 14 16 18 19 20 23 24 23 22
4 4 4 4 3 2 2 2 3 4 4 3 4 4 3 3 3 1 1 3 3 4 3 2 7 7 2 2 8 4 2 3 6 10 12 14 11 8 8 8 7 7 5 3 2 0 2 3 2 1 3 4 2 2 4 2 2 3 4 2 2 3 3 3 3 2 3 5 5 9 12 13 7 3 11 13 10 11 10 10 13 15 17 17 18 21 23 23
2 2 2 3 3 2 1 2 3 4 4 3 2 2 3 4 4 3 3 4 4 5 3 2 7 7 4 3 5 1 2 3 6 9 12 13 11 9 10 10 8 8 6 3 1 2 3 4 3 1 1 3 4 4 3 3 3 2 3 2 3 4 4 5 4 2 3 3 3 11 18 17 7 6 14 14 11 14 11 9 11 13 16 15 15 17 18 21
1 1 1 1 2 1 2 3 3 4 4 3 1 1 2 2 3 4 5 5 5 5 4 4 6 5 5 4 5 6 3 3 4 7 11 12 13 13 12 12 10 8 6 3 2 4 3 3 1 1 2 3 2 2 3 6 2 2 3 3 4 6 5 5 3 1 3 2 6 13 16 11 10 11 16 12 12 14 10 10 10 12 13 13 13 13 14 18
1 0 0 0 1 1 2 3 4 4 4 3 2 0 2 1 3 3 5 6 6 5 5 5 4 2 1 3 7 6 4 4 4 7 10 10 11 13 13 13 10 8 6 3 3 3 3 3 2 2 5 3 1 3 4 5 2 4 4 4 3 5 4 4 2 1 3 2 7 9 10 5 8 15 12 7 10 11 9 10 10 11 11 11 13 13 14 16
0 0 0 0 1 1 2 3 5 6 4 3 3 2 3 4 3 2 5 7 6 5 5 5 3 1 2 3 4 4 3 4 4 6 7 8 10 11 12 12 10 9 6 4 4 4 5 6 5 3 5 4 5 6 5 5 4 3 2 1 2 3 2 5 2 1 2 1 4 5 5 8 8 8 9 7 8 8 10 12 12 12 10 10 12 13 15 16
1 1 0 1 2 2 1 2 6 7 5 4 4 3 3 3 3 1 5 7 5 4 4 5 4 2 3 4 3 4 4 3 3 4 3 6 9 7 8 9 8 8 6 5 5 6 6 5 4 3 5 6 7 4 3 4 4 3 2 1 1 3 1 5 4 1 2 3 0 3 4 10 14 5 8 7 8 9 14 16 14 14 13 11 10 10 12 13
2 1 1 1 2 2 1 3 6 7 6 4 3 3 3 1 3 3 6 6 4 4 3 4 3 1 2 2 3 4 4 2 2 2 2 4 6 4 5 7 7 8 7 6 5 6 7 4 3 4 4 3 3 3 4 4 3 3 2 5 4 4 3 1 4 2 2 2 2 3 5 10 11 3 4 8 11 11 15 17 15 14 13 12 10 9 9 10
3 3 1 1 2 3 2 3 6 5 5 5 3 3 3 2 1 4 7 6 5 4 2 3 3 0 1 2 2 2 2 2 2 3 3 3 3 4 5 5 5 8 7 6 5 5 6 2 1 2 3 3 2 3 5 4 2 0 2 5 4 4 6 3 1 3 1 1 3 5 8 15 17 14 14 15 12 12 13 15 14 11 9 8 8 8 8 9
4 3 2 2 3 4 3 3 4 4 5 5 4 4 3 2 2 4 6 6 5 3 1 4 3 2 2 2 0 1 1 2 3 3 4 3 3 4 3 2 6 7 4 4 2 3 5 1 3 2 2 3 1 3 5 4 4 5 5 5 6 5 7 6 1 3 2 2 6 9 10 18 21 19 20 18 12 11 11 11 11 8 6 5 5 6 6 7
4 4 2 2 3 4 3 2 3 3 4 4 4 4 3 4 3 3 7 6 2 1 2 4 4 0 2 1 1 1 1 3 4 4 5 4 4 4 4 4 6 5 3 4 1 3 5 2 4 4 1 0 2 3 3 4 4 6 5 5 7 7 7 7 3 5 4 4 8 10 11 19 20 17 19 16 9 7 7 7 6 5 3 2 2 3 3 4
4 3 1 1 2 3 2 2 4 4 4 3 4 4 4 5 3 1 6 6 6 5 3 4 5 3 3 1 2 2 2 3 5 6 6 5 5 4 4 4 4 2 1 3 2 3 4 4 3 2 3 3 4 4 2 2 3 4 4 5 7 7 8 6 3 5 3 3 7 8 12 20 19 16 15 10 5 3 4 3 3 3 2 2 1 2 5 8
3 3 2 1 2 2 2 2 4 4 2 2 3 5 4 5 3 0 4 6 7 7 6 5 4 4 2 2 2 3 2 3 4 7 8 6 5 3 2 2 4 2 2 1 3 1 2 4 2 4 5 4 4 3 2 1 1 3 5 6 7 7 7 3 4 4 2 1 6 7 12 20 19 14 9 5 3 3 4 4 4 4 3 3 3 5 9 10
2 2 3 3 3 3 4 3 2 0 1 2 3 3 2 2 3 3 3 2 4 4 4 4 4 4 4 3 4 4 3 2 2 5 8 6 3 3 2 3 3 1 2 1 4 3 3 2 3 4 3 4 3 2 1 1 3 4 5 6 6 4 5 2 5 4 3 1 6 6 9 17 18 12 4 3 3 3 4 3 3 3 3 4 4 5 6 7
2 3 4 5 5 5 4 2 2 2 1 2 4 1 2 3 4 5 3 0 2 3 3 3 3 2 3 3 5 6 3 2 1 4 8 5 2 3 4 4 2 1 1 2 2 4 4 1 4 3 2 2 1 1 1 3 4 6 5 5 6 4 4 3 3 1 4 5 6 7 8 14 13 5 2 4 2 1 2 2 2 3 3 4 4 5 7 9
3 4 5 5 6 8 8 4 3 2 2 3 4 2 2 4 5 5 3 2 1 1 1 3 2 2 2 3 7 6 3 2 1 5 7 4 2 2 2 3 2 2 1 1 2 6 3 4 4 2 1 2 2 1 3 5 5 6 7 6 7 6 4 5 4 6 9 6 3 7 8 7 5 2 5 4 3 1 1 1 3 4 6 8 9 11 12 13
5 4 4 3 3 5 6 5 4 2 3 4 5 4 4 5 6 5 3 2 1 1 0 2 2 2 2 4 7 5 2 2 2 5 6 4 2 2 0 1 2 2 2 2 3 6 1 3 3 3 2 2 3 4 4 4 6 6 5 3 5 5 5 7 8 9 8 2 3 3 7 2 3 3 6 4 4 5 4 4 8 10 11 13 14 14 15 15
5 3 3 2 3 4 4 3 3 3 4 6 6 6 6 6 6 5 3 2 2 1 1 1 1 2 3 4 6 5 2 2 4 6 4 3 3 1 1 1 0 1 2 0 2 2 1 3 1 1 2 3 4 6 3 3 6 6 1 3 4 3 5 7 8 6 6 5 1 2 4 4 3 1 7 6 7 9 7 9 14 16 15 15 15 15 15 16
4 3 2 3 3 3 3 3 4 5 5 7 8 7 7 6 6 5 3 3 2 1 1 1 2 3 3 5 5 4 2 3 5 4 2 3 3 1 2 1 1 0 2 2 3 1 3 4 3 2 3 4 4 5 3 5 5 4 2 3 3 3 6 6 6 5 5 7 3 4 4 6 5 2 6 5 8 10 10 12 13 14 15 15 15 16 16 16
3 3 2 3 3 3 3 4 5 6 7 9 9 8 7 7 7 5 3 3 0 1 1 1 2 3 5 7 5 2 3 5 4 2 2 4 3 1 3 2 2 0 2 3 4 0 2 3 5 4 4 5 3 2 3 4 5 1 2 2 3 5 7 5 5 6 4 6 3 5 5 5 3 3 6 5 8 9 9 10 11 13 15 14 15 16 16 15
2 2 1 2 3 4 4 6 7 8 9 9 9 8 7 7 6 3 2 2 1 1 0 1 2 3 7 8 2 1 3 3 3 4 5 3 2 1 2 1 0 0 2 4 5 1 2 1 1 2 3 3 2 4 3 2 3 1 1 4 5 5 6 5 5 5 3 4 3 4 5 4 5 2 4 4 6 6 6 7 9 11 12 13 14 15 15 15
1 0 1 3 5 6 7 8 9 9 10 9 8 7 7 5 3 3 3 2 1 1 0 1 2 4 7 5 1 1 1 1 4 6 4 1 2 1 2 1 2 3 3 4 4 0 4 2 1 1 3 2 4 2 1 0 1 3 4 7 7 6 5 4 4 3 3 4 1 4 2 3 5 2 2 4 5 6 5 5 6 8 11 12 12 14 15 16
2 2 3 5 6 8 9 9 10 10 10 9 7 6 5 3 1 3 2 0 1 0 1 0 1 3 5 3 1 2 1 1 4 6 2 1 2 2 2 2 2 3 4 4 3 3 4 2 2 1 2 2 2 1 2 2 1 2 5 6 7 4 4 3 3 3 4 3 3 3 1 3 5 2 4 8 8 8 6 5 5 7 11 14 14 16 17 17
3 4 5 6 8 9 10 10 11 10 9 8 6 5 4 2 3 2 0 0 0 1 1 1 2 3 3 1 1 2 2 1 3 3 2 2 2 1 1 2 1 3 3 0 1 3 3 2 3 3 1 1 3 2 2 3 3 4 5 5 7 5 3 4 3 3 4 0 4 2 4 3 9 6 5 11 10 9 7 5 6 8 12 15 15 17 18 19
4 5 6 7 9 10 10 10 10 9 8 6 4 3 3 4 3 1 1 0 1 2 1 1 1 2 3 2 1 2 1 1 2 2 0 1 2 0 2 2 3 3 3 4 5 3 1 2 3 3 2 1 3 3 1 1 1 3 3 4 5 5 6 7 6 6 5 0 5 3 4 4 10 5 8 13 10 10 8 6 5 7 12 14 14 16 18 19
6 6 7 8 9 9 9 9 8 8 6 4 3 3 4 4 1 1 0 1 2 1 1 1 2 2 2 1 2 2 1 1 2 2 1 2 2 1 2 2 3 2 2 4 4 3 3 1 1 1 1 1 2 2 2 3 4 2 2 3 4 4 5 7 6 7 8 5 1 3 0 5 5 2 10 13 12 10 9 8 7 9 12 13 14 16 19 20
7 8 8 9 9 9 8 8 7 6 4 2 2 4 4 3 2 1 1 1 2 2 1 1 2 3 1 1 2 2 1 1 1 2 3 2 2 3 2 3 3 3 2 3 2 1 5 2 3 2 1 0 1 2 2 3 3 0 0 3 3 2 3 6 9 8 7 8 4 4 3 5 2 7 11 12 11 10 9 9 10 12 14 16 17 19 20 21
9 9 9 9 9 9 8 7 6 4 3 3 3 4 2 2 2 2 2 2 2 3 4 2 2 3 1 1 2 1 0 1 2 3 2 1 2 4 2 3 4 3 3 3 2 2 4 2 4 3 1 2 1 1 0 3 2 1 2 2 0 2 3 6 8 5 3 6 6 4 5 5 2 5 11 11 6 8 9 10 13 16 19 22 22 21 22 23
8 8 9 9 9 8 7 6 4 2 3 4 4 2 1 1 2 2 3 2 1 2 5 3 0 1 2 1 1 2 1 1 2 2 1 1 1 3 2 2 3 3 4 3 2 2 3 4 3 3 0 3 1 2 2 1 3 2 2 3 2 1 1 3 5 3 4 7 6 4 6 6 5 2 8 7 6 10 10 13 17 19 23 24 23 23 24 25
7 8 8 8 7 6 5 4 2 1 2 4 3 1 1 1 2 2 2 1 1 1 3 3 1 1 2 2 1 2 1 2 1 2 3 1 1 2 2 2 2 2 3 2 2 1 3 5 0 1 0 3 3 3 2 2 1 3 3 3 2 2 2 2 3 4 6 8 7 5 5 6 5 2 3 4 10 13 12 14 15 17 21 22 23 24 25 27
6 6 6 5 5 5 4 3 1 1 3 3 2 0 1 1 2 1 0 0 1 1 2 1 1 1 1 2 2 1 0 3 3 3 3 2 1 2 2 1 1 2 1 2 2 2 2 3 2 1 2 2 3 4 2 2 2 1 3 2 1 2 4 3 2 4 5 8 8 7 4 3 2 3 6 8 10 12 13 12 12 16 20 21 23 24 25 28
4 4 4 4 5 4 3 1 1 1 2 2 1 1 1 1 2 1 1 1 1 2 2 2 1 2 1 1 2 2 0 2 3 3 1 2 2 2 3 3 2 2 1 2 2 3 2 3 3 0 2 1 2 2 1 2 1 2 3 3 2 2 2 3 3 3 5 7 7 7 6 2 3 5 8 9 9 10 12 12 12 17 21 22 23 24 26 29
3 3 3 4 5 3 1 1 2 1 1 0 1 1 1 1 1 1 1 0 1 1 2 3 3 3 3 2 1 1 2 2 2 2 1 1 1 2 3 4 4 2 1 1 2 2 2 3 5 4 4 4 1 3 4 4 2 2 3 2 2 2 2 5 5 2 1 5 4 6 9 5 2 4 6 7 8 10 13 15 16 20 22 23 23 25 27 30
2 3 3 6 5 2 0 1 2 1 2 1 1 1 1 1 1 1 1 0 1 1 1 2 2 2 2 2 1 1 3 3 1 1 2 1 2 3 2 2 3 2 2 1 0 1 2 3 5 7 8 3 4 5 4 3 2 2 3 2 2 3 3 5 7 2 1 3 1 4 9 5 2 5 4 10 11 12 16 19 19 21 22 23 25 27 29 28
2 3 5 6 4 1 0 1 1 0 0 2 2 1 1 1 0 1 0 1 0 1 1 2 1 2 1 1 2 1 1 2 2 1 2 1 2 4 2 1 2 1 2 1 1 2 1 3 4 7 7 1 6 4 3 2 1 2 3 2 1 2 2 4 5 4 4 6 4 6 9 3 4 5 5 15 16 15 17 20 21 23 24 25 28 29 28 27
3 3 4 5 3 0 0 1 1 0 1 2 1 0 0 0 0 1 0 0 0 1 2 1 0 1 0 1 3 2 1 2 1 1 1 1 1 3 2 2 1 1 2 1 1 3 1 3 3 6 7 1 2 1 2 1 1 2 1 2 2 2 2 1 2 2 4 6 6 7 8 3 3 2 13 19 17 16 20 22 23 25 26 27 29 28 27 27
3 3 2 4 3 1 0 1 2 2 1 1 1 1 0 0 1 1 0 0 1 2 2 1 0 1 1 1 2 2 2 3 1 1 1 1 1 2 2 2 2 1 3 1 1 2 3 4 3 5 6 5 5 4 2 2 3 4 1 3 2 1 2 1 3 4 5 4 4 7 9 8 7 11 17 17 15 17 21 24 26 25 25 27 29 28 27 28
2 2 2 2 2 2 1 1 2 2 0 0 1 0 0 0 1 1 2 1 1 2 2 1 1 2 2 2 3 3 3 3 2 2 2 2 1 2 1 1 1 0 2 1 1 1 3 4 4 7 8 7 8 8 5 4 6 8 6 1 3 3 1 2 4 4 4 6 6 8 10 13 15 16 16 14 14 15 19 24 25 25 26 27 28 28 29 28
2 1 2 2 1 2 2 3 2 1 0 1 1 1 0 1 1 2 3 2 1 2 2 2 2 3 2 1 3 3 1 3 3 1 2 2 1 1 1 0 0 1 1 1 0 0 3 5 3 4 8 9 11 12 10 7 9 10 9 5 1 4 4 4 6 5 7 7 7 7 10 15 17 18 15 13 14 15 19 24 25 26 27 27 29 31 31 28
2 1 1 1 1 1 0 2 3 1 1 1 1 1 1 1 0 0 1 1 2 3 2 2 3 4 3 2 3 3 2 3 3 1 1 1 1 0 1 2 1 1 1 1 1 1 4 4 1 1 6 10 12 13 12 8 7 7 6 6 3 4 5 6 7 7 7 6 10 12 16 17 17 15 13 13 17 20 22 25 26 27 28 29 32 32 29 29
2 1 0 1 0 1 1 1 2 1 0 1 1 1 1 2 1 1 1 1 2 3 2 2 0 1 2 2 3 4 4 3 2 0 1 1 1 2 2 1 2 1 2 2 1 1 3 2 2 1 7 11 10 8 5 3 4 5 4 4 3 2 5 6 6 7 8 10 13 16 19 18 12 10 12 16 22 25 25 26 27 27 29 32 34 32 30 32
2 1 1 2 2 1 1 1 1 1 1 1 1 1 1 2 1 1 1 2 2 2 2 2 2 2 0 1 4 4 3 4 4 2 1 1 1 1 2 1 1 1 2 1 1 0 1 1 2 0 7 8 2 2 2 3 5 6 4 2 2 3 3 4 4 7 9 11 14 16 17 14 8 13 17 20 23 25 26 28 28 29 32 34 34 31 30 32
4 3 2 2 1 1 1 1 2 2 1 1 0 1 0 1 2 1 1 2 1 1 0 2 3 1 1 2 4 3 4 5 3 3 2 2 3 2 1 3 3 1 2 1 0 1 1 1 0 1 7 6 3 4 4 4 3 5 5 2 2 3 2 3 5 7 10 13 15 14 12 8 10 16 20 21 23 23 24 27 29 32 35 34 31 29 30 33
4 3 3 3 1 0 0 1 2 2 1 1 1 1 0 1 1 2 2 2 1 1 2 2 3 3 2 1 1 2 4 3 3 3 2 3 3 2 2 2 3 2 0 1 1 0 1 3 3 2 6 4 1 4 10 5 2 3 3 2 4 4 4 5 7 10 13 13 12 10 7 9 14 18 19 20 22 24 24 26 30 34 34 30 28 30 32 35
Wind_Direction
96 101 104 111 119 120 118 116 120 120 120 116 112 106 104 108 110 112 101 81 68 69 78 77 59 54 62 67 69 66 72 69 55 82 66 40 29 356 335 191 186 100 354 0 11 0 353 358 333 328 287 228 47 59 73 48 356 268 258 273 292 359 21 19 3 22 1 355 144 166 186 206 207 182 210 235 230 237 241 239 235 233 240 240 244 245 242 247
91 99 103 107 110 113 112 109 110 109 108 102 95 96 103 110 117 118 101 80 73 75 81 81 53 36 30 36 46 48 74 83 41 42 44 30 11 342 324 214 222 279 343 357 7 343 329 348 345 327 271 329 35 42 91 19 342 308 296 278 356 35 40 23 11 32 7 359 139 173 193 211 224 175 188 228 243 230 233 243 235 232 243 244 243 247 246 244
90 98 104 106 105 107 107 102 99 95 92 81 65 62 85 118 134 133 109 82 75 72 72 73 63 44 343 344 357 27 64 101 7 20 26 22 6 347 343 242 239 277 318 340 0 345 345 351 347 332 293 18 40 7 23 358 344 341 302 289 47 58 65 53 35 48 32 9 176 181 190 213 226 178 181 233 266 244 235 246 239 230 240 244 239 244 248 243
90 95 102 107 106 105 102 96 90 86 79 64 40 13 350 230 171 163 129 88 66 59 53 48 41 28 350 338 311 273 4 211 9 10 2 9 9 356 6 2 269 268 319 325 352 357 349 343 350 351 306 82 59 34 33 8 356 354 318 346 51 58 79 90 81 60 60 353 238 178 180 218 222 206 215 247 273 257 247 250 245 244 254 258 240 235 244 246
90 95 102 107 106 104 100 94 87 81 71 59 45 22 349 302 231 200 171 109 52 39 35 28 17 13 16 2 332 232 231 241 18 3 350 8 14 11 23 23 352 265 319 310 353 349 331 321 320 333 331 54 43 44 56 18 348 9 19 24 47 337 334 118 119 84 107 345 248 192 195 219 219 230 235 242 254 259 276 278 243 253 274 277 258 229 235 246
85 96 104 108 103 97 89 84 80 68 55 49 43 29 1 325 267 238 237 242 19 12 12 16 5 3 9 15 30 122 214 280 22 355 355 25 30 34 32 24 20 73 7 320 339 321 316 316 302 330 9 61 26 21 55 12 310 309 98 98 70 346 21 122 142 146 139 279 237 221 256 273 266 260 251 241 245 253 274 282 263 266 271 272 269 230 228 244
80 94 106 107 97 82 67 64 67 50 37 37 37 23 356 329 286 263 260 275 317 341 360 9 8 4 342 24 59 86 93 64 26 3 17 33 34 34 30 28 28 56 66 283 306 311 320 330 338 39 48 89 54 60 47 333 284 302 113 133 120 45 87 111 139 178 144 287 274 302 292 273 263 270 277 251 251 258 267 273 271 274 273 269 265 243 237 247
72 90 102 108 92 69 59 58 51 30 28 36 29 8 344 320 291 275 272 286 301 329 354 2 10 5 312 91 111 101 74 58 28 25 31 31 28 21 21 30 33 47 37 275 294 320 313 320 354 315 300 69 71 96 11 293 204 5 89 136 136 101 112 111 128 172 239 282 291 291 271 269 260 271 284 268 268 269 266 267 270 277 276 266 260 252 249 251
61 81 93 110 105 82 74 57 28 13 21 29 18 8 357 345 307 282 278 316 325 330 338 351 4 357 44 152 209 192 60 48 40 41 39 34 26 18 27 38 44 51 28 340 309 328 322 323 354 303 51 82 106 106 350 299 51 41 88 125 137 128 130 133 167 183 255 271 299 287 274 275 259 268 280 271 273 273 263 258 257 270 275 267 259 254 252 252
53 68 86 102 104 99 87 23 3 5 18 17 13 25 57 80 67 58 45 16 351 337 333 344 355 358 57 240 250 245 62 60 49 46 46 40 33 33 43 46 53 59 35 351 310 335 8 22 60 63 101 96 95 60 343 318 54 73 105 113 131 153 162 169 206 202 260 267 290 293 285 277 247 234 271 266 269 269 268 259 250 260 269 268 261 255 252 252
63 60 87 103 106 104 357 345 3 17 24 10 14 65 98 86 60 50 34 6 356 357 15 8 357 21 54 289 259 184 105 82 55 51 49 42 38 39 42 45 49 57 48 12 19 114 88 96 103 78 116 129 108 69 47 97 96 112 130 181 178 198 197 190 212 210 266 270 313 303 288 269 222 204 254 256 268 271 271 264 255 262 272 271 260 253 252 252
88 58 106 130 138 168 305 345 22 33 36 25 45 143 144 77 32 27 19 8 6 11 34 7 359 52 72 41 81 109 118 85 65 53 47 39 37 35 36 38 36 51 61 43 74 83 79 105 95 345 95 127 140 106 115 124 120 168 194 251 210 211 201 182 197 196 267 312 342 309 293 263 192 215 250 243 253 265 263 258 253 259 274 283 269 254 248 254
84 50 157 177 204 266 312 4 26 23 29 27 34 205 229 279 346 15 22 15 9 13 29 6 351 89 62 44 82 99 103 77 61 50 44 33 32 31 29 30 27 36 50 35 50 60 51 64 47 127 120 95 130 138 138 144 167 189 213 286 262 230 188 150 165 191 236 317 344 316 307 300 200 216 230 212 240 254 253 256 259 257 263 279 283 273 261 264
55 18 348 7 325 323 344 22 15 7 6 6 7 337 275 274 291 10 22 12 5 11 24 15 13 72 63 88 89 77 76 68 51 45 39 25 28 26 17 19 21 24 37 38 42 60 67 70 64 98 112 92 127 143 153 171 200 212 206 235 260 299 115 127 125 223 225 35 354 319 293 301 296 242 198 201 244 246 262 276 280 273 264 267 278 281 278 278
319 340 276 352 13 15 30 21 11 10 9 4 357 340 312 274 248 288 358 357 353 3 24 32 40 75 98 100 76 55 57 49 35 28 22 20 31 31 6 7 12 14 25 33 42 50 47 57 58 72 96 111 146 173 213 201 208 236 287 278 275 336 72 123 94 340 339 64 42 304 286 288 313 324 164 211 259 250 272 287 287 282 278 272 270 272 277 279
339 334 273 315 5 17 358 349 4 12 9 4 352 343 347 307 242 281 330 338 331 346 10 21 32 82 158 122 56 42 37 18 355 339 328 3 30 38 8 11 4 358 2 2 17 26 15 28 89 121 139 151 187 263 281 239 208 189 282 324 325 324 323 94 88 64 10 25 221 252 286 288 301 314 183 262 270 255 275 291 294 292 284 277 273 270 271 272
12 351 306 286 335 352 330 335 357 7 4 357 336 338 0 26 297 296 322 321 311 328 340 338 344 128 137 122 56 25 1 347 329 307 297 318 2 11 16 22 350 348 349 333 346 5 356 11 125 144 185 233 257 283 296 289 292 53 317 320 318 318 320 309 104 86 65 308 274 254 260 273 277 284 294 294 281 266 281 300 309 309 296 283 276 272 275 275
12 357 326 285 314 344 331 327 350 355 355 349 334 327 334 355 337 330 339 321 302 290 250 347 336 195 105 91 118 347 334 353 339 309 307 305 311 333 359 346 323 343 332 296 326 351 338 299 228 263 217 220 259 287 306 337 339 324 319 317 320 317 309 306 18 68 356 297 284 281 268 272 279 292 305 311 307 287 289 308 320 323 312 294 278 274 277 283
359 357 342 284 313 352 343 318 325 334 345 340 333 326 321 331 315 340 354 345 341 246 228 11 14 43 39 54 202 352 12 3 354 337 330 316 302 305 319 318 318 329 297 274 36 17 339 295 232 265 278 157 27 353 327 355 344 317 314 303 303 301 296 308 53 78 8 316 282 282 278 281 288 299 309 320 332 310 301 316 326 338 343 332 301 288 303 328
358 6 26 305 335 354 337 296 278 291 314 309 324 336 329 321 282 243 6 23 76 85 88 57 50 53 16 335 269 322 350 350 357 352 343 336 327 306 300 314 293 266 307 312 345 24 339 285 260 331 17 37 49 38 23 23 354 307 288 279 281 283 286 300 77 96 49 320 282 285 287 287 289 297 310 333 4 349 334 353 12 19 21 21 21 31 34 32
10 31 64 59 24 348 307 298 289 284 275 272 329 342 332 323 303 34 22 42 75 80 85 75 65 70 42 7 335 342 349 336 347 346 343 352 351 325 280 290 267 251 76 31 284 321 276 273 354 49 43 57 72 56 52 50 325 280 271 281 281 279 285 312 91 114 108 319 287 299 297 287 290 303 322 356 22 31 30 27 32 33 37 45 50 56 63 64
30 70 81 66 38 343 304 289 292 173 191 286 339 337 352 27 26 26 10 56 77 72 79 64 56 54 23 26 20 14 9 322 337 335 335 347 347 341 322 281 275 319 73 214 260 264 256 267 70 72 74 83 85 69 27 278 266 262 264 275 279 298 312 343 102 125 157 223 293 322 307 288 293 308 341 78 74 53 25 7 18 12 22 44 55 61 66 64
70 96 84 62 43 20 354 290 219 130 93 342 352 356 83 51 24 16 353 242 93 64 62 54 62 33 0 12 6 8 6 327 349 329 333 353 359 339 334 307 287 309 241 247 298 296 291 52 93 93 112 141 132 111 256 269 252 249 254 266 279 321 335 293 125 140 248 245 285 306 288 282 291 296 126 114 100 17 342 5 35 26 32 28 22 20 10 13
102 94 80 71 60 52 50 66 122 101 59 27 18 24 29 351 349 360 339 264 170 84 45 32 31 348 347 344 344 2 6 318 317 324 339 7 5 326 352 358 303 254 208 47 304 275 289 72 104 135 163 236 260 225 233 263 276 255 237 250 280 307 324 295 308 308 281 249 253 289 282 271 260 179 111 130 181 133 88 106 79 62 41 24 21 25 24 23
102 86 79 81 53 39 46 56 71 58 24 22 20 4 342 338 345 349 328 265 213 124 339 1 9 341 343 331 339 358 345 295 290 313 340 7 2 343 34 11 290 260 94 80 277 269 279 89 130 168 186 237 252 255 238 247 289 280 236 254 311 322 318 299 310 316 300 259 155 290 307 292 183 132 83 101 135 108 119 113 79 62 45 40 40 37 36 32
104 87 71 41 341 338 0 9 9 0 358 9 11 354 337 337 338 337 328 268 220 78 337 296 338 328 339 334 341 347 306 257 301 309 334 4 17 18 248 178 242 9 77 125 281 289 99 115 172 210 219 227 244 262 231 187 277 291 323 28 13 325 300 297 310 314 304 307 154 200 287 282 277 89 93 97 96 89 87 72 62 55 47 45 42 34 30 24
112 95 67 36 5 353 357 336 343 360 2 359 352 339 328 327 328 332 321 260 219 38 332 289 290 286 323 336 340 340 308 302 311 312 341 349 9 347 271 197 191 122 113 269 287 172 125 139 190 217 226 233 253 266 181 169 266 291 91 17 358 295 288 292 298 276 281 307 278 185 223 264 281 115 114 110 92 80 71 61 50 46 43 38 34 28 23 19
112 92 72 50 30 15 8 350 352 358 355 348 336 327 325 320 321 325 297 267 267 20 339 341 281 273 324 334 328 310 309 319 311 335 1 332 2 323 256 283 307 162 149 247 280 157 127 172 193 198 222 244 272 21 106 187 254 339 92 320 311 289 281 272 273 268 277 304 272 174 187 250 268 147 136 123 97 82 74 64 45 40 39 31 25 20 15 12
125 100 66 27 0 350 348 352 353 348 346 340 324 320 326 317 310 297 255 275 2 88 28 338 276 291 327 325 304 258 303 324 323 339 346 330 348 315 257 289 34 142 185 237 270 315 93 107 182 212 238 267 14 50 55 237 248 24 16 281 266 248 252 245 252 267 262 266 255 152 168 252 287 233 154 118 93 82 77 63 45 40 34 24 18 12 8 7
179 290 344 337 338 337 336 343 343 340 340 331 319 323 324 317 303 259 245 273 24 82 286 296 297 323 333 317 223 97 319 332 345 333 330 295 301 303 265 246 186 215 223 224 258 217 101 91 123 241 273 346 12 33 63 341 340 343 294 274 262 224 210 228 237 254 248 235 171 105 146 282 295 281 89 87 87 78 68 55 43 37 29 19 14 11 8 6
252 279 307 314 319 322 326 330 329 332 335 324 321 327 317 311 274 256 271 295 120 12 285 299 341 347 3 346 286 23 13 354 358 340 318 250 250 213 224 235 199 240 235 203 219 169 138 175 160 96 336 355 327 257 152 130 30 300 274 279 285 249 202 213 197 197 245 257 97 90 324 285 265 272 87 105 101 81 66 48 34 23 17 13 10 10 8 6
268 280 294 300 303 307 311 315 319 324 326 321 322 324 302 260 233 242 286 70 236 347 341 39 21 7 15 320 258 352 343 317 4 356 343 316 269 223 296 318 345 290 271 28 303 199 175 166 113 88 76 202 269 258 172 158 179 237 261 290 303 303 284 265 253 248 268 4 110 89 355 286 258 270 115 123 109 88 78 53 37 22 13 9 7 5 3 2
268 280 288 292 294 297 300 304 312 316 316 317 314 300 279 264 258 115 96 315 330 16 4 325 347 342 317 279 300 354 281 261 5 9 4 282 262 220 50 359 336 299 292 344 328 294 284 100 132 149 136 160 260 279 241 158 200 257 298 319 310 319 312 295 293 289 292 65 131 97 8 276 264 279 121 121 102 88 81 61 48 32 17 10 5 2 1 1
273 280 286 293 294 294 299 304 310 312 306 307 298 271 266 271 290 71 86 353 19 14 2 341 311 289 284 317 19 353 259 189 1 326 269 229 245 261 89 52 340 305 278 302 322 311 284 253 160 172 102 148 234 307 352 322 304 310 357 311 282 298 297 292 304 301 302 310 201 133 42 263 270 109 120 115 97 85 70 53 41 26 18 11 7 6 3 359
285 292 297 303 304 304 309 311 310 304 286 265 275 260 259 285 344 23 340 21 30 336 279 158 280 270 223 118 65 8 315 121 6 302 261 253 311 340 37 57 19 349 304 295 1 347 257 247 75 64 56 135 204 62 28 295 288 193 15 266 258 310 297 280 292 295 303 305 276 184 210 261 229 133 128 120 103 79 51 39 27 13 11 10 8 6 1 355
291 298 304 308 311 312 313 311 303 279 229 227 258 262 264 338 2 6 357 1 5 330 303 244 231 269 257 153 127 86 113 252 315 313 236 210 17 23 46 53 24 9 6 328 347 359 280 262 119 139 135 87 51 35 228 291 317 167 256 287 4 9 317 285 286 287 282 281 262 219 237 261 251 153 142 139 106 59 42 27 15 7 6 7 4 0 355 351
292 297 304 309 311 313 311 307 293 231 209 242 262 286 357 56 14 10 19 355 343 321 304 295 7 331 316 289 79 68 99 220 265 294 272 175 68 37 46 67 31 16 38 355 326 53 316 288 156 156 135 107 106 295 219 271 323 285 279 340 6 329 264 267 280 291 280 275 270 261 265 277 294 246 155 140 40 25 25 14 8 5 3 0 356 352 350 348
298 302 306 309 311 315 314 307 301 192 225 251 256 295 24 85 34 25 43 344 313 306 298 299 5 17 338 314 343 59 358 328 323 299 319 328 88 20 10 63 57 39 44 330 292 60 310 286 248 88 76 134 164 255 228 192 278 302 310 326 310 283 261 224 258 301 297 286 285 279 273 277 276 248 129 67 22 15 11 8 5 2 359 353 349 348 347 345
304 306 303 312 319 323 322 320 330 223 241 258 268 315 29 58 60 47 50 11 315 299 299 325 1 357 327 317 328 30 348 325 334 323 324 342 21 35 24 23 72 89 36 317 310 350 289 274 304 73 123 140 183 223 235 163 154 237 269 251 199 289 286 272 291 309 292 286 291 288 278 284 303 61 57 38 26 15 6 5 1 357 354 349 347 346 344 342
307 305 288 311 326 328 331 345 73 235 253 283 325 6 31 42 77 53 323 66 25 309 328 359 328 282 304 320 320 342 250 274 309 306 323 3 1 52 60 18 24 89 22 306 296 303 254 242 277 236 150 223 222 206 333 21 112 222 234 220 206 216 252 286 274 252 265 279 291 293 287 306 53 66 61 43 29 19 9 4 358 353 350 347 346 344 340 337
300 289 278 315 326 331 358 39 63 19 283 294 37 41 51 29 52 13 322 44 8 334 343 330 305 298 316 314 306 337 286 266 284 288 300 13 359 33 58 27 14 22 327 258 250 296 288 256 277 281 263 271 345 66 34 23 10 304 278 275 293 274 273 289 271 202 233 272 291 299 288 300 42 86 71 36 22 25 14 3 356 350 346 343 342 339 336 333
290 279 297 321 326 329 17 35 53 6 298 325 45 37 37 12 15 15 358 322 306 312 289 287 289 294 309 314 327 331 294 287 287 302 295 306 12 21 47 32 10 344 296 288 118 43 343 282 274 275 272 282 76 81 59 36 359 312 284 285 324 298 269 278 283 330 344 265 298 289 273 288 66 123 65 15 18 27 13 1 354 346 342 339 336 335 333 332
286 290 309 325 333 357 277 278 135 135 324 65 63 55 27 11 4 30 28 201 220 274 243 243 275 292 310 327 305 291 303 291 278 308 294 282 37 43 42 9 7 317 283 278 92 74 343 257 261 275 272 140 105 105 86 56 290 244 228 221 283 307 315 297 295 331 314 272 271 270 266 279 127 150 352 358 13 19 4 357 351 341 337 335 332 332 332 333
293 292 310 331 346 68 315 326 337 354 84 93 91 157 174 255 282 320 336 199 209 277 271 257 259 281 308 308 289 296 341 309 278 9 331 308 37 64 42 37 91 13 354 340 6 22 295 253 281 299 293 277 132 135 119 138 258 264 197 122 91 67 62 344 282 291 274 259 255 262 271 279 160 262 334 347 1 3 355 352 346 338 335 332 330 331 332 332
312 301 316 340 353 9 200 14 349 334 62 114 273 273 205 209 245 259 324 351 262 283 299 289 213 279 274 272 276 266 266 271 278 45 23 327 74 92 42 46 113 18 5 19 353 342 287 282 293 293 298 304 308 320 347 323 313 309 302 118 119 148 160 246 279 262 253 271 270 254 267 285 297 319 330 338 351 353 347 343 339 336 332 329 330 331 330 330
315 313 350 345 358 19 73 76 347 306 202 232 266 227 246 252 147 196 227 243 231 247 280 265 231 262 242 240 273 258 222 223 255 326 325 302 65 94 38 11 119 315 337 358 9 330 280 279 266 264 273 285 300 314 329 328 307 297 296 267 141 147 171 256 267 265 294 313 284 258 280 298 308 318 326 340 351 346 337 336 335 332 329 328 331 330 329 329
315 299 355 330 353 39 74 74 20 331 77 293 273 99 261 234 139 170 204 225 235 230 245 237 229 248 242 281 293 281 201 211 228 276 308 293 2 91 146 78 105 253 312 353 12 274 266 270 275 273 270 276 290 298 302 301 289 289 302 311 182 144 150 206 234 272 318 316 279 285 312 309 308 317 330 348 348 336 333 333 331 329 328 330 331 330 329 329
345 293 315 282 346 27 61 43 16 14 106 315 273 117 273 252 176 209 192 184 219 223 233 220 212 239 264 312 315 310 302 259 226 185 343 315 336 263 172 130 153 240 240 198 173 346 276 270 24 22 278 280 281 282 288 288 281 284 296 299 276 160 165 204 238 278 302 288 281 300 310 303 302 319 341 350 340 332 331 329 328 328 329 330 331 329 328 329
340 347 202 204 148 31 337 358 356 318 193 309 232 175 288 300 7 34 135 189 203 190 224 267 196 218 262 287 292 302 322 316 289 315 53 16 320 289 279 230 155 181 232 212 150 31 283 269 77 70 284 284 276 276 286 266 269 281 268 270 277 202 206 224 249 286 294 283 286 298 301 296 306 344 354 342 334 330 328 328 329 330 330 331 330 327 326 329
295 300 201 191 157 74 32 22 331 271 213 221 216 156 272 291 353 54 174 236 260 151 187 278 15 69 28 277 256 276 351 359 320 316 8 327 283 274 284 325 65 147 221 223 126 125 266 315 84 159 286 291 257 170 197 226 274 280 230 203 291 263 245 250 272 302 305 295 294 299 297 293 327 358 345 333 333 332 330 330 330 330 331 329 325 324 328 331
280 272 242 214 168 74 11 351 267 269 235 191 355 45 242 301 10 346 208 199 300 12 152 325 354 31 200 236 250 285 17 23 336 332 342 293 298 321 332 349 359 267 201 179 194 214 234 274 193 254 296 306 125 157 252 271 288 262 216 195 327 292 284 301 305 317 316 306 303 302 297 302 341 345 333 328 334 335 333 332 330 329 328 324 323 331 335 334
283 267 241 243 248 157 308 261 247 266 335 56 25 17 308 20 37 325 283 169 170 301 283 316 329 297 254 232 255 342 20 11 322 321 307 276 281 309 329 5 2 334 289 169 216 265 309 291 302 321 304 306 88 309 304 302 264 233 187 93 351 323 311 315 320 321 313 306 306 305 310 330 337 336 331 331 336 337 334 332 327 322 320 323 332 340 337 334